Back to catalog

COSMOS 680

AliveMilitaryLEO
NORAD 7438·PAYLOAD·🇷🇺 Russia

Launched Sep 19, 1974 from Plesetsk Cosmodrome

Loading…

Next Passes (next 24 hours)

TLE

FreshSource: Space-Track

Epoch: Sep 14, 2026, 06:54 UTC

1 07438U 74072D   26257.28817910 -.00000008  00000-0  51146-4 0  9990
2 07438  74.0389  10.6462 0016238 335.8112  51.6539 12.46645685365793

Track COSMOS 680 in real time with AllMySat

Download on the App Store